sat.trackr.live / text

‹ back to catalog

STARLINK-31424

NORAD 59247 · 2024-049S

PAYLOAD ACTIVE UNKNOWN

§ Identity

Operator
Country
US
Launch date
2024-03-16
Launch site
AFETR
Launch vehicle
Mass (kg)
RCS (m²)

Purposes: comms

External: N2YO · Heavens-Above · Gunter

§ Orbital elements

Epoch: 2026-05-25T04:12:09.624096Z

Period
94.27 min
Inclination
43.0044°
Eccentricity
0.0000943
Mean motion
15.27581218 rev/d
Perigee alt
482.4 km
Apogee alt
483.7 km
Semi-major
6,861.2 km
B*
4.0184e-5
RAAN
68.1112°
Arg perigee
271.3240°
Mean anomaly
88.7504°
Rev number
12,413

§ Raw data

STARLINK-314241 59247U 24049S   26145.17511139  .00000844  00000+0  40184-4 0  99982 59247  43.0044  68.1112 0000943 271.3240  88.7504 15.27581218124131

JSON: /api/v1/satellites/59247 · /tle

For live sub-satellite position, see the globe view (requires WebGL).

§ Visibility from observer

Set your observer location to see the next 7 days of passes ≥ 10°. The values pass through the URL so the page stays shareable.

No JS? Fill the form by hand. The geolocation button needs JavaScript.